EW9442 Weather Reports


time (UTC)temp
C
wind
direction
speed
KPH
gust
KPH
rain 1hr
cm
rain 24hr
cm
rain mn
cm
humidity
%
barometer
mb
20260506111545 15 178 0.0 0.0 0.00 0.00 0.00 85 1010.2
20260506110049 15 182 0.0 0.0 0.00 0.00 0.00 84 1009.9
20260506104537 15 200 0.0 0.0 0.00 0.00 0.00 83 1009.5
20260506103034 16 186 0.0 1.6 0.00 0.00 0.00 83 1009.4
20260506101547 16 180 0.0 0.0 0.00 0.00 0.00 82 1009.3
20260506100029 16 194 0.0 3.2 0.00 0.00 0.00 81 1009.0
20260506094527 17 174 0.0 0.0 0.00 0.00 0.00 81 1008.8
20260506093025 17 113 0.0 0.0 0.00 0.00 0.00 81 1008.6
20260506091525 17 140 0.0 0.0 0.00 0.00 0.00 80 1008.6
20260506090038 17 140 0.0 0.0 0.00 0.00 0.00 80 1008.6
20260506084520 17 130 0.0 0.0 0.00 0.00 0.00 79 1008.6
20260506083016 17 193 0.0 0.0 0.00 0.00 0.00 78 1008.5
20260506081513 18 138 0.0 0.0 0.00 0.00 0.00 77 1008.5
20260506073001 20 300 0.0 0.0 0.00 0.00 0.00 78 1008.6
20260506071607 20 178 0.0 0.0 0.00 0.00 0.00 79 1008.4
20260506061539 23 178 0.0 0.0 0.00 0.00 0.00 81 1008.1
20260506044525 25 342 0.0 0.0 0.00 0.00 0.00 83 1007.4
20260506043022 25 342 0.0 0.0 0.00 0.00 0.00 83 1007.2
20260506041528 25 342 0.0 0.0 0.00 0.00 0.00 83 1007.0
20260506040022 25 342 0.0 0.0 0.00 0.00 0.00 83 1006.9
20260506034520 25 9 0.0 0.0 0.00 0.00 0.00 82 1006.8
20260506033026 25 30 0.0 0.0 0.00 0.00 0.00 81 1006.2
20260506031524 25 30 0.0 0.0 0.00 0.00 0.00 80 1005.9
20260506030023 25 34 0.0 0.0 0.00 0.00 0.00 80 1005.5
20260506024518 25 22 0.0 0.0 0.00 0.00 0.00 79 1005.2
20260506023016 26 29 0.0 0.0 0.00 0.00 0.00 79 1005.2
20260506021515 26 38 0.0 0.0 0.00 0.00 0.00 78 1004.9
20260506020020 26 39 0.0 0.0 0.00 0.00 0.00 78 1005.0
20260506014518 26 27 0.0 0.0 0.00 0.00 0.00 78 1004.8
20260506013023 26 349 0.0 0.0 0.00 0.00 0.00 77 1004.8
20260506011513 26 326 0.0 0.0 0.00 0.00 0.00 77 1004.8
20260506010017 26 327 0.0 0.0 0.00 0.00 0.00 77 1004.8
20260506004518 26 314 0.0 0.0 0.00 0.00 0.00 77 1004.3
20260506003011 27 315 0.0 0.0 0.00 0.00 0.00 76 1004.4
20260506001512 27 292 0.0 0.0 0.00 0.00 0.00 76 1004.3
20260506000017 27 321 0.0 0.0 0.00 0.00 0.00 76 1004.4
20260505234516 27 337 0.0 0.0 0.00 0.00 0.00 75 1004.3
20260505233008 27 315 0.0 0.0 0.00 0.00 0.00 75 1004.2
20260505231508 27 311 0.0 0.0 0.00 0.00 0.00 74 1004.2
20260505230012 27 164 0.0 0.0 0.00 0.00 0.00 74 1004.3
20260505224507 28 355 0.0 0.0 0.00 0.00 0.00 73 1004.0
20260505223008 28 304 0.0 0.0 0.00 0.00 0.00 71 1003.8
20260505221504 27 355 0.0 0.0 0.00 0.00 0.00 73 1003.9
20260505220006 28 355 0.0 0.0 0.00 0.00 0.00 72 1004.1
20260505214502 28 289 0.0 0.0 0.00 0.00 0.00 72 1004.3
20260505213101 28 322 0.0 0.0 0.00 0.00 0.00 71 1004.2
20260505211616 29 238 0.0 0.0 0.00 0.00 0.00 73 1004.3
20260505210105 29 272 0.0 0.0 0.00 0.00 0.00 72 1004.7
20260505204551 28 231 0.0 0.0 0.00 0.00 0.00 72 1005.0
20260505203050 28 232 0.0 0.0 0.00 0.00 0.00 74 1005.1
20260505201552 27 286 0.0 0.0 0.00 0.00 0.00 75 1005.0
20260505200043 27 297 0.0 0.0 0.00 0.00 0.00 74 1005.0
20260505194542 27 311 0.0 0.0 0.00 0.00 0.00 74 1005.2
20260505193047 27 252 0.0 0.0 0.00 0.00 0.00 75 1005.5
20260505191549 27 61 0.0 0.0 0.00 0.00 0.00 74 1005.6
20260505190044 27 10 0.0 0.0 0.00 0.00 0.00 75 1005.7
20260505184536 27 83 0.0 0.0 0.00 0.00 0.00 75 1005.5
20260505183047 27 273 0.0 0.0 0.00 0.00 0.00 76 1005.6
20260505181531 26 74 0.0 0.0 0.00 0.00 0.00 77 1005.8
20260505180036 26 280 0.0 0.0 0.00 0.00 0.00 76 1005.9
20260505174536 26 321 0.0 0.0 0.00 0.00 0.00 77 1006.1
20260505173036 26 300 0.0 0.0 0.00 0.00 0.00 77 1006.2
20260505171530 26 5 0.0 0.0 0.00 0.00 0.00 77 1006.1
20260505170022 25 259 0.0 0.0 0.00 0.00 0.00 77 1006.1
20260505164531 25 308 0.0 0.0 0.00 0.00 0.00 78 1006.2
20260505163022 25 264 0.0 0.0 0.00 0.00 0.00 79 1006.2
20260505161514 24 355 0.0 0.0 0.00 0.00 0.00 79 1006.2
20260505153007 23 286 0.0 0.0 0.00 0.00 0.00 80 1006.2
20260505151504 23 157 0.0 0.0 0.00 0.00 0.00 81 1006.1
20260505124542 21 30 0.0 0.0 0.00 0.00 0.00 85 1005.5
20260505123103 21 347 0.0 0.0 0.00 0.00 0.00 85 1005.5
20260505121540 21 286 0.0 0.0 0.00 0.00 0.00 85 1005.6
20260505120047 21 290 0.0 0.0 0.00 0.00 0.00 85 1005.5
20260505114548 21 350 0.0 0.0 0.00 0.00 0.00 85 1005.5
20260505113036 21 300 0.0 0.0 0.00 0.00 0.00 85 1005.2